Weather in Ust'-Pinega

Russia / Arkhangel'skaya Oblast'     64°08′56″N   41°55′19″E
temp.,
°C
wind,
m/s
gust,
m/s
humid.,
%
clouds,
%
prec.,
mm/h
press.,
hPa
HPBL,
m
15 may, sat
sat1500:00+11w22778 0.0 101319
03:00+10sw1184100 0.0 101412
06:00+13sw137122 0.1 1014176
09:00+16sw1456100 0.1 1014598
12:00+20w144095 0.0 10132021
15:00+18ene2349100 0.0 101366
18:00+18ene254994 0.0 1012219
21:00+16e3857100 0.0 1011237
16 may, sun
sun1600:00+15ene3960100 0.0 1009325
03:00+13ene41166100 0.0 1008386
06:00+14e41264100 0.2 1006599
09:00+12e41092100 4.9 1005516
12:00+14e479099 0.8 1005508
15:00+16e4581100 2.5 1004402
18:00+13ene3697100 2.7 1004187
21:00+13e389797 3.2 1004229
17 may, mon
mon1700:00+11e279864 0.0 1004187
03:00+12e2399100 0.3 1004113
06:00+11sw2496100 0.2 1006322
09:00+9wsw2495100 0.5 1009279
12:00+10wsw2395100 0.1 1011234
15:00+11wsw1294100 0.2 1014240
18:00+11sw1195100 0.0 101592
21:00+10sw1298100 0.0 101672
18 may, tue
tue1800:00+10sw1199100 0.1 101720
03:00+10ese119895 0.1 101832
06:00+11sse239171 0.0 1018249
09:00+15se3572100 0.0 1018657
12:00+19se3453100 0.0 10171052
15:00+22se4643100 0.0 10151338
18:00+21se4949100 0.0 1013742
21:00+19se4145856 0.0 1012516
19 may, wed
wed1900:00+16se41569100 0.0 1011482
03:00+16sse41376100 0.0 1010396
06:00+18sse41371100 0.0 1009459
09:00+24sse612455 0.0 1007918
12:00+28s612345 0.0 10061598
15:00+31s6152768 0.0 10043593
18:00+28ssw5133434 0.0 10042390
21:00+21se385533 0.0 1004154